Wind_Speed
52 57 59 64 68 72 76 76 80 84 85 84 82 82 81 78 73 73 74 72 73 72 71 72 72 71 69 69 67 66 67 65 72 74 72 68 63 64 65 66 67 68 68 73 74
44 52 56 61 65 67 71 76 76 80 83 87 86 82 80 80 81 82 77 74 73 73 74 76 75 74 70 66 63 63 64 69 70 68 65 67 64 62 63 64 64 63 65 68 69
37 44 53 57 62 67 68 74 77 79 81 84 87 86 84 81 82 85 82 79 78 75 74 77 78 77 75 63 61 60 62 65 65 64 64 66 69 62 61 58 61 59 60 64 66
37 36 45 53 59 63 66 70 73 77 78 83 83 86 87 84 80 85 82 82 81 80 79 78 75 73 74 72 63 57 60 59 57 58 61 64 63 59 56 58 56 58 59 62 64
38 36 38 47 56 61 64 69 69 71 76 78 84 84 86 86 83 82 79 80 81 80 80 77 74 71 71 70 68 60 58 55 53 55 55 56 58 57 54 57 58 58 58 60 63
39 38 39 42 49 55 59 63 67 69 71 73 78 84 86 86 84 84 82 80 79 77 77 79 79 76 74 74 67 60 61 58 57 58 55 53 55 49 56 61 58 57 58 60 62
39 41 41 41 43 49 54 58 62 65 70 73 73 79 83 85 84 82 81 79 77 75 73 72 73 73 73 72 67 64 60 58 62 61 54 52 48 48 54 54 54 56 59 58 62
38 41 44 43 43 44 48 54 57 61 65 69 74 76 79 82 80 80 79 78 77 76 73 71 71 72 72 71 69 66 66 64 66 64 59 52 52 55 55 53 53 52 52 56 58
44 42 44 46 43 43 46 50 54 58 63 67 72 74 76 80 80 81 82 79 79 78 77 75 75 75 75 76 74 73 71 67 68 67 68 63 52 59 60 57 53 54 48 51 55
54 51 49 48 49 46 45 49 51 54 59 63 69 73 75 79 77 77 78 77 76 80 80 79 77 75 79 80 79 77 75 77 75 70 72 67 57 59 62 61 59 56 55 51 54
58 61 58 54 53 52 49 42 47 51 59 68 70 69 73 75 74 75 74 75 75 75 80 78 76 79 80 80 81 82 80 78 75 74 74 70 60 62 64 65 65 64 62 58 52
49 49 57 57 58 56 47 39 50 60 61 63 66 65 68 71 72 69 67 67 69 74 78 79 79 81 83 84 83 83 80 77 76 76 74 73 62 64 66 66 66 66 66 65 62
45 45 49 50 59 57 49 47 55 55 58 57 60 58 57 56 56 56 56 59 62 66 73 76 80 83 85 87 87 84 78 78 78 77 75 75 66 72 68 70 70 69 69 69 69
40 40 43 44 52 59 53 53 54 55 55 53 54 52 50 52 51 52 56 62 67 73 76 79 81 81 81 83 82 77 75 76 79 80 80 80 74 72 75 74 76 77 78 75 75
34 34 36 40 48 57 60 57 57 57 53 52 51 50 49 49 52 52 54 53 54 58 61 63 67 69 72 75 72 73 74 77 78 79 79 80 88 72 79 82 83 87 85 82 81
30 27 32 39 43 59 63 60 59 52 51 50 52 50 47 47 47 46 44 45 51 52 55 58 62 65 67 68 68 69 73 77 79 82 80 86 89 70 85 86 87 91 94 94 88
24 20 28 38 45 59 67 66 56 48 52 53 54 51 47 44 40 38 41 44 47 50 53 54 56 60 63 65 67 71 75 77 80 82 79 84 83 77 83 81 85 87 94 93 87
18 17 27 35 43 57 63 63 50 49 53 55 54 50 44 38 33 33 39 44 46 47 50 51 54 57 62 63 66 68 70 75 73 74 74 77 81 81 88 82 84 86 87 90 85
16 14 23 33 43 53 61 57 49 52 55 58 56 51 43 37 31 30 33 36 40 42 45 50 54 55 55 54 54 54 60 67 70 76 78 84 84 85 85 77 77 86 89 95 97
13 11 18 31 39 48 56 56 53 53 54 55 55 50 46 38 32 28 26 28 31 35 39 43 41 43 42 45 49 53 62 70 76 76 77 74 73 75 77 66 70 80 81 88 94
9 5 14 26 34 42 49 55 57 57 51 52 54 51 45 38 33 29 28 26 27 29 29 31 36 40 44 46 52 57 66 65 64 60 59 57 59 61 62 59 64 73 74 76 86
7 3 13 23 29 34 48 60 59 56 46 51 52 49 44 40 38 35 31 29 31 30 32 34 37 40 44 49 54 53 41 40 46 51 52 54 39 63 46 50 57 70 74 73 79
10 5 12 21 28 32 47 58 57 51 47 46 47 47 46 43 40 37 35 34 33 33 34 34 36 41 46 45 31 23 32 27 24 27 37 39 35 47 43 45 54 60 69 68 71
9 7 16 22 32 39 52 57 57 50 45 44 45 45 44 43 41 39 35 34 35 34 31 32 36 42 31 14 13 14 16 21 30 29 29 35 33 33 33 36 47 53 55 64 65
8 5 13 23 30 36 45 55 56 53 47 44 43 41 44 42 41 35 33 34 32 29 29 32 33 16 3 6 10 19 19 25 30 37 29 22 29 20 16 21 27 36 43 53 60
6 2 14 18 26 33 38 44 51 55 51 45 41 39 40 42 40 36 34 32 27 27 28 28 10 7 4 6 10 19 22 27 33 38 26 27 21 18 11 8 15 21 30 44 57
2 5 11 18 22 28 35 40 50 58 55 48 45 43 41 38 36 34 33 26 25 24 23 15 8 10 3 9 7 17 20 26 34 40 43 45 34 22 11 8 11 16 23 40 54
Wind_Direction
261 256 250 244 242 238 236 236 235 235 233 232 234 234 234 230 231 231 234 236 237 239 240 240 243 245 245 246 248 250 254 255 253 256 259 262 263 262 260 258 257 255 253 253 253
263 258 252 246 243 242 238 237 236 234 235 233 232 233 235 233 232 235 235 236 237 239 241 240 241 242 245 249 251 252 256 255 256 259 261 265 264 259 256 255 254 253 253 252 253
268 259 252 248 244 241 240 237 235 234 231 234 236 231 232 232 233 234 235 236 238 239 243 247 246 246 247 243 253 255 255 257 258 259 261 262 263 258 252 251 251 252 254 255 255
272 263 253 247 244 243 239 238 238 235 233 230 232 236 231 231 231 235 236 239 240 243 245 247 250 252 252 252 250 253 253 253 255 257 258 257 257 253 251 252 254 254 254 256 256
277 269 257 247 244 241 239 237 236 236 236 233 231 232 234 231 230 234 235 236 238 240 243 245 248 249 253 254 254 250 252 250 250 252 253 254 255 253 254 254 253 255 256 255 254
280 271 264 250 244 241 240 237 235 232 233 232 231 230 233 235 233 232 234 235 237 239 240 243 246 248 251 254 253 251 248 248 250 251 252 253 255 257 257 252 254 255 257 257 256
280 273 264 257 247 240 238 237 234 232 231 230 231 229 229 232 233 234 234 234 236 236 237 240 243 245 246 250 251 248 249 249 247 250 251 253 263 258 259 256 253 254 253 258 256
282 273 266 257 250 240 236 235 234 231 229 228 227 228 225 228 231 233 234 234 235 236 237 238 240 243 244 248 250 250 251 254 248 250 251 253 255 260 262 263 261 259 259 254 257
284 276 267 260 253 244 233 232 229 229 227 225 225 225 223 226 228 231 233 235 237 238 240 240 241 242 245 249 250 252 253 255 253 251 251 252 252 259 262 266 268 262 263 259 257
285 273 266 259 253 245 237 227 225 223 225 224 224 225 224 226 227 232 234 235 236 237 238 241 241 243 246 248 251 255 256 257 259 255 249 251 251 259 263 265 268 269 263 263 256
282 273 261 254 249 244 237 230 222 222 223 222 222 223 223 225 227 231 234 234 234 235 236 238 240 243 247 249 251 252 255 257 257 252 248 248 250 256 260 263 263 265 270 271 267
281 264 257 246 242 242 238 225 217 220 222 221 223 224 226 226 229 230 233 233 234 234 236 237 239 244 247 249 251 254 253 254 252 252 250 252 249 253 256 261 266 266 266 266 267
279 262 252 245 235 236 234 217 218 218 222 221 222 223 223 223 223 225 228 233 235 235 236 238 240 243 246 248 250 250 251 252 251 253 255 252 250 257 256 258 262 263 262 263 264
282 260 247 240 226 229 228 218 217 216 218 217 216 214 215 218 221 229 236 239 239 238 239 240 241 243 244 245 247 248 250 252 253 254 255 257 250 255 258 260 261 259 258 258 260
287 262 241 228 222 220 220 217 217 214 213 212 209 208 215 220 228 233 239 237 234 234 236 236 237 239 241 243 246 247 251 253 254 256 256 260 255 248 255 256 258 259 258 257 258
289 260 231 220 212 209 213 216 217 214 208 208 206 208 217 221 228 235 232 230 229 230 232 234 237 240 242 246 249 253 254 256 259 260 259 258 260 256 260 258 258 259 259 258 257
291 256 227 210 205 203 208 213 213 209 204 204 205 209 214 222 226 226 224 226 230 232 236 239 241 244 245 249 253 255 257 260 262 264 268 265 265 264 259 257 257 254 256 255 253
301 256 214 211 200 202 208 211 207 203 202 203 206 209 213 219 221 218 220 224 228 233 238 243 247 248 252 254 258 262 265 266 267 268 267 269 272 272 266 258 256 254 251 255 251
314 252 218 202 198 200 206 207 200 201 200 202 205 206 211 214 215 215 219 225 228 233 238 244 249 255 259 261 263 265 269 271 273 275 276 275 274 270 268 261 255 249 244 244 247
316 246 208 201 198 197 203 202 195 204 201 201 204 207 208 209 212 213 215 220 227 233 240 247 252 256 259 265 270 274 278 280 282 280 277 278 276 271 267 259 249 246 241 240 241
322 233 198 197 195 194 199 195 196 204 200 198 202 207 207 209 210 212 215 219 225 231 236 242 250 261 268 276 278 280 282 282 283 285 287 287 288 275 261 258 245 243 244 239 240
11 136 184 182 190 189 192 193 198 205 200 196 201 206 209 213 215 217 218 224 230 237 243 251 261 270 279 283 285 283 282 289 290 292 287 281 268 273 265 253 245 236 235 236 238
35 129 168 177 175 180 191 194 200 201 200 199 199 204 209 215 219 221 224 229 237 244 252 259 270 276 283 287 286 291 293 299 311 309 299 285 271 274 268 242 241 240 232 230 234
38 158 166 173 175 177 189 197 201 200 199 199 202 208 211 214 220 226 231 236 242 250 258 269 277 287 296 299 309 325 358 356 342 341 332 313 306 295 273 253 240 237 237 224 224
25 161 178 176 178 183 189 197 197 199 199 198 197 204 209 212 218 226 230 236 243 254 267 277 292 296 43 352 346 22 20 23 12 4 349 341 328 324 282 255 241 236 231 221 217
5 164 173 181 178 178 186 193 194 196 198 199 197 200 205 213 219 221 227 234 245 259 275 289 283 195 254 25 10 39 36 26 24 24 20 35 20 342 320 243 222 209 213 212 207
8 162 173 175 178 181 182 186 192 194 196 196 197 199 201 204 208 215 226 236 252 270 286 294 179 182 84 2 18 70 40 30 30 31 36 37 43 53 89 123 156 172 187 194 199
Height
10533 10536 10539 10544 10550 10556 10564 10572 10581 10590 10598 10608 10617 10626 10636 10645 10653 10656 10661 10673 10677 10683 10688 10694 10699 10706 10710 10714 10717 10721 10727 10728 10725 10726 10730 10744 10752 10753 10750 10750 10754 10754 10754 10754 10754
10518 10518 10522 10527 10533 10539 10547 10555 10562 10572 10582 10591 10600 10609 10619 10629 10636 10641 10653 10657 10663 10670 10675 10682 10688 10694 10699 10702 10706 10709 10714 10713 10714 10717 10723 10727 10735 10737 10739 10737 10740 10739 10741 10742 10744
10503 10503 10505 10509 10514 10521 10529 10536 10543 10553 10563 10573 10584 10593 10602 10611 10620 10624 10638 10642 10650 10658 10664 10668 10673 10678 10685 10691 10695 10700 10700 10701 10702 10705 10709 10713 10720 10724 10726 10725 10721 10727 10732 10732 10733
10490 10488 10489 10493 10498 10503 10510 10518 10526 10534 10545 10555 10566 10576 10586 10596 10605 10608 10622 10628 10636 10645 10650 10653 10658 10664 10671 10678 10684 10687 10687 10690 10690 10694 10696 10699 10705 10710 10714 10710 10714 10717 10720 10720 10721
10476 10475 10475 10478 10481 10487 10492 10499 10508 10518 10528 10537 10549 10560 10570 10580 10588 10594 10607 10615 10622 10630 10634 10640 10647 10651 10657 10663 10668 10676 10675 10678 10680 10683 10684 10688 10691 10697 10703 10699 10702 10704 10706 10707 10708
10463 10463 10462 10463 10465 10469 10475 10482 10491 10501 10511 10520 10531 10542 10554 10564 10573 10579 10590 10599 10607 10615 10620 10628 10633 10640 10645 10648 10655 10661 10662 10667 10669 10670 10674 10677 10678 10691 10683 10683 10691 10694 10693 10693 10695
10450 10448 10448 10449 10451 10454 10459 10465 10474 10484 10493 10503 10514 10525 10538 10549 10556 10564 10576 10586 10594 10601 10608 10614 10619 10626 10630 10634 10642 10646 10649 10654 10654 10656 10664 10666 10672 10674 10667 10674 10680 10681 10682 10682 10682
10436 10434 10433 10435 10437 10440 10444 10449 10458 10467 10476 10487 10497 10507 10522 10532 10543 10550 10561 10571 10580 10587 10594 10600 10606 10612 10616 10622 10626 10633 10638 10640 10640 10645 10652 10657 10661 10657 10658 10659 10665 10670 10671 10671 10670
10419 10419 10419 10421 10422 10427 10430 10435 10444 10453 10462 10472 10481 10491 10507 10516 10528 10536 10547 10557 10567 10574 10581 10587 10593 10600 10603 10605 10612 10616 10622 10627 10630 10633 10635 10641 10652 10644 10645 10649 10653 10655 10659 10660 10658
10400 10400 10402 10404 10408 10411 10415 10420 10429 10439 10450 10457 10465 10478 10494 10503 10513 10521 10532 10543 10553 10561 10567 10573 10580 10587 10585 10590 10597 10602 10608 10610 10613 10618 10619 10627 10640 10636 10635 10637 10640 10641 10642 10644 10646
10378 10375 10379 10385 10390 10395 10401 10411 10420 10429 10433 10438 10451 10467 10476 10487 10499 10509 10518 10528 10537 10545 10552 10560 10568 10566 10571 10578 10582 10585 10591 10596 10598 10600 10603 10613 10626 10626 10621 10623 10624 10625 10627 10630 10632
10352 10352 10352 10363 10370 10377 10389 10403 10403 10406 10418 10432 10443 10455 10465 10476 10487 10497 10505 10513 10522 10532 10539 10545 10549 10553 10558 10562 10568 10573 10577 10581 10582 10583 10589 10594 10613 10609 10609 10611 10611 10611 10611 10611 10612
10330 10330 10331 10339 10352 10363 10378 10388 10387 10397 10408 10421 10431 10444 10455 10467 10478 10486 10493 10500 10509 10518 10523 10530 10535 10539 10545 10550 10554 10557 10563 10563 10567 10569 10574 10579 10596 10588 10597 10596 10591 10591 10592 10592 10594
10311 10310 10313 10322 10335 10346 10367 10373 10379 10386 10397 10410 10421 10435 10449 10457 10468 10477 10482 10489 10494 10500 10507 10515 10521 10526 10533 10536 10540 10546 10547 10551 10552 10553 10556 10560 10574 10580 10577 10576 10573 10570 10568 10570 10574
10294 10293 10297 10306 10316 10337 10350 10358 10366 10374 10389 10403 10417 10430 10439 10450 10457 10465 10470 10475 10481 10487 10496 10504 10509 10516 10520 10521 10529 10532 10536 10535 10535 10537 10540 10545 10539 10574 10558 10555 10550 10543 10548 10552 10553
10279 10279 10283 10291 10305 10320 10334 10344 10352 10369 10384 10399 10411 10424 10432 10441 10449 10454 10460 10465 10471 10480 10487 10494 10501 10505 10509 10513 10518 10522 10521 10519 10518 10517 10525 10521 10514 10556 10535 10534 10530 10524 10522 10526 10538
10268 10268 10272 10280 10290 10305 10317 10328 10345 10366 10378 10392 10404 10415 10425 10433 10440 10445 10451 10457 10465 10473 10480 10488 10494 10497 10500 10504 10507 10507 10504 10504 10502 10500 10507 10497 10494 10513 10505 10501 10499 10502 10494 10499 10514
10261 10261 10264 10273 10285 10297 10308 10322 10346 10362 10373 10385 10397 10409 10419 10427 10433 10438 10444 10451 10458 10467 10475 10482 10484 10487 10487 10493 10493 10493 10492 10485 10486 10482 10483 10478 10478 10479 10465 10477 10474 10473 10477 10477 10485
10256 10256 10262 10270 10279 10294 10306 10325 10347 10354 10364 10376 10390 10403 10412 10421 10428 10432 10438 10446 10455 10462 10469 10472 10474 10476 10479 10481 10482 10482 10476 10470 10469 10463 10460 10453 10450 10442 10429 10437 10445 10444 10446 10450 10454
10255 10255 10261 10269 10278 10290 10304 10324 10340 10347 10358 10373 10386 10397 10407 10416 10424 10429 10435 10442 10449 10456 10461 10465 10468 10467 10469 10470 10471 10470 10462 10454 10446 10442 10431 10431 10417 10406 10399 10409 10413 10410 10421 10429 10437
10256 10256 10262 10271 10280 10290 10303 10323 10331 10338 10356 10371 10381 10393 10403 10412 10419 10426 10432 10438 10444 10449 10455 10460 10461 10460 10460 10461 10459 10456 10446 10438 10425 10417 10409 10405 10393 10378 10376 10382 10384 10390 10400 10415 10422
10258 10259 10264 10274 10282 10291 10304 10315 10325 10335 10355 10366 10378 10390 10401 10408 10414 10421 10429 10435 10439 10445 10449 10452 10454 10453 10451 10450 10447 10438 10430 10423 10414 10405 10395 10385 10385 10353 10361 10360 10360 10364 10376 10393 10404
10262 10263 10268 10275 10282 10292 10304 10315 10326 10339 10352 10365 10375 10386 10395 10402 10409 10418 10425 10430 10435 10439 10443 10446 10446 10445 10443 10438 10431 10425 10422 10414 10405 10392 10377 10368 10362 10347 10342 10342 10343 10349 10359 10378 10395
10268 10267 10271 10277 10284 10292 10301 10314 10326 10340 10352 10363 10373 10382 10390 10398 10405 10412 10420 10425 10428 10432 10437 10439 10438 10434 10430 10427 10425 10423 10416 10408 10400 10386 10370 10352 10343 10334 10329 10328 10331 10338 10348 10364 10381
10274 10274 10274 10279 10284 10293 10301 10310 10326 10338 10350 10360 10369 10378 10386 10394 10401 10409 10414 10419 10424 10428 10431 10432 10430 10426 10425 10424 10424 10420 10412 10407 10396 10382 10367 10349 10333 10326 10319 10319 10323 10332 10343 10357 10376
10277 10279 10280 10282 10288 10294 10303 10312 10325 10337 10348 10358 10368 10374 10382 10390 10397 10405 10409 10414 10420 10424 10425 10425 10423 10424 10423 10422 10420 10416 10411 10405 10394 10382 10364 10348 10337 10323 10317 10316 10320 10327 10339 10355 10373
10281 10281 10283 10284 10290 10296 10302 10309 10320 10331 10343 10354 10362 10369 10378 10386 10394 10400 10405 10412 10414 10418 10417 10418 10421 10421 10421 10419 10417 10414 10410 10404 10395 10382 10367 10354 10346 10337 10326 10320 10322 10330 10340 10356 10375